Tracking 35048 objects as of 19-Aug-2026
HD Live streaming from Space Station
objects crossing your sky now

NORBY-2

Track NORBY-2 now!
10-day predictions
NORBY-2 is classified as:


NORAD ID: 57179
Int'l Code: 2023-091P
Launch date: June 27, 2023
Source: (TBD)
Launch site: VOSTOCHNY COSMODROME (VOSTO)

Uplink (MHz):
Downlink (MHz): 435.600
Beacon (MHz):
Mode: LoRa
Call sign:
Status: Active

Your satellite tracking list
Your tracking list is empty




NASA's NSSDC Master Catalog

Two Line Element Set (TLE):
1 57179U 23091P   26231.15707368  .00003921  00000-0  20202-3 0  9999
2 57179  97.5039 286.5256 0012955 266.0663  93.9089 15.16906916173338
Source of the keplerian elements: AFSPC